STELLA

Satellite information

Favourite Embed

Satellite Type and Status

PAYLOADIN ORBIT

Key statistics

Satellite STELLA at a glance.

Uptime

11766

Days in orbit

Revolutions

≈ 14.3

Per day

Orbit

SSO

Sun Synchronous Orbit

Inclination

98.8

Latest

Satellite identification and parameters

Extended collection of information and parameters for STELLA.

Object identification

Identified? True

Debris? False

Object name: STELLA

International designator: 1993-061B

Object number (NORAD): 22824

Object ID (CCSDS): 22824

Country: FRANCE (FR)

Current information (Y/N): Y

RCS size: MEDIUM

Orbital parameters

Period: 100.878 minutes

Inclination: 98.8011 deg

SMA: 7178.357 km

Apoapsis: 805.506 km

Periapsis: 794.939 km

RAAN: 44.59 deg

Eccentricy: 0.00073605

Argument of periapsis: 65.2976 deg

Mean anomaly: 8.7695 deg

Mean motion: 14.27463978 rev/day

Mean motion (dot): -0.00000034 rev/day2

B* drag term: 0.0000046084 1/REarth

Two-line elements (TLE)

Creation date: Dec. 12, 2025, 10:14 a.m.

Reference frame: TEME

Reference center: EARTH

Epoch: Dec. 12, 2025, 6:06 a.m. UTC

TLE line 0: 0 STELLA

TLE line 1: 1 22824U 93061B 25346.25423398 -.00000034 00000-0 46084-5 0 9998

TLE line 2: 2 22824 98.8011 44.5900 0007361 65.2976 8.7695 14.27463978678109

Live tracking on map

Real-time ground track for satellite STELLA.

In-orbit conjunctions

A list of the most updated potential collisions computed for object STELLA.

Target Orbit TCA Probability of collision Miss distance Type
CZ-6A DEB LEO 2025-06-23 16:51:30 0.0008462483 440.0 (m) DEBRIS
NOAA 16 DEB SSO 2025-06-18 04:46:31 0.0002425192 709.0 (m) DEBRIS
FENGYUN 1C DEB SSO 2025-06-05 18:11:11 0.000121966 929.0 (m) DEBRIS
DELTA 1 DEB SSO 2025-05-06 14:50:30 0.000229463 637.0 (m) DEBRIS
CZ-6A DEB SSO 2024-11-06 02:34:53 0.0002572639 893.0 (m) DEBRIS

Associated space launch

The satellites SPOT 1, 2 and 3 (Satellite Probatoire de l'Observation de la Terre) were the first generation of SPOT earth observation satellites operated by Spot Image.

STELLA was lifted into orbit during the mission ‘Ariane 40 | SPOT 3’, on board a Ariane 40 space rocket.

The launch took place on Sept. 26, 1993, 1:45 a.m. from Ariane Launch Area 2.

For more information about the launch, click the button.

Launch to space Ariane 40 | SPOT 3
Ariane 40 | SPOT 3

Agency: N/A

Status: Launch Successful

Launch date: Sept. 26, 1993, 1:45 a.m. UTC

Rocket: Ariane 40

Launch pad: Ariane Launch Area 2

Location: Guiana Space Centre, French Guiana

...

Latest news about this satellite

There are no fresh news available about this satellite. Check back as we update our databases every day.


Newsletter sign-up

Weekly statistics, charts and insights to help you stay on top of the space industry.